Madison, MN

11:12 AM CDT on July 27, 2017 (GMT -0500)
Madison-Lac Qui Parle County

Weather History for KDXX - October, 2011

Change the Weather History Date:

Friday, October 28, 2011

  Actual Average (KAQP) Record (KAQP)
Temperature  
Mean Temperature 42 °F -  
Max Temperature 53 °F 48 °F 69 °F (2016)
Min Temperature 30 °F 30 °F 19 °F (2008)
Degree Days  
Heating Degree Days 24    
Moisture  
Dew Point 24 °F    
Average Humidity 55    
Maximum Humidity 100    
Minimum Humidity 19    
Precipitation  
Precipitation 0.00 in - - ()
Sea Level Pressure  
Sea Level Pressure 30.05 in    
Wind  
Wind Speed 9 mph (WNW)    
Max Wind Speed 22 mph    
Max Gust Speed 28 mph    
Visibility 10 miles    
Events      
Averages and records for this station are not official NWS values.
T = Trace of Precipitation, MM = Missing Value Source: NWS Daily Summary

Daily Weather History Graph

Daily Weather History Graph

Search for Another Location

Airport or City:

Trip Planner

Search our weather history database for the weather conditions in past years. The results will help you decide how hot, cold, wet, or windy it might be!

Date:

Astronomy

Oct. 28, 2011 Rise Set
Actual Time 7:57 AM CDT 6:18 PM CDT
Civil Twilight 7:27 AM CDT 6:49 PM CDT
Nautical Twilight 6:52 AM CDT 7:23 PM CDT
Astronomical Twilight 6:18 AM CDT 7:57 PM CDT
Moon 10:22 AM CDT (10/28) 7:34 PM CDT (10/28)
Length of Visible Light 11h 22m
Length of Day
10h 21m
Waxing Crescent, 5% of the Moon is Illuminated
Oct 28
Waxing Crescent
Nov 2
First Quarter
Nov 10
Full
Nov 18
Last Quarter
Nov 25
New

Hourly Weather History & Observations

Time (CDT) Temp. Windchill Dew Point Humidity Pressure Visibility Wind Dir Wind Speed Gust Speed Precip Events Conditions
12:13 AM 35.6 °F 29.9 °F 26.6 °F 70% 30.01 in 10.0 mi South 6.9 mph - N/A   Mostly Cloudy
12:34 AM 35.6 °F 30.7 °F 26.6 °F 70% 30.01 in 10.0 mi South 5.8 mph - N/A   Mostly Cloudy
12:53 AM 37.4 °F 32.8 °F 26.6 °F 65% 30.01 in 10.0 mi South 5.8 mph - N/A   Mostly Cloudy
1:13 AM 37.4 °F - 28.4 °F 70% 30.01 in 10.0 mi Calm Calm - N/A   Overcast
1:34 AM 39.2 °F - 28.4 °F 65% 30.02 in 10.0 mi Calm Calm - N/A   Scattered Clouds
1:54 AM 39.2 °F 34.2 °F 28.4 °F 65% 30.00 in 10.0 mi South 6.9 mph - N/A   Mostly Cloudy
2:13 AM 39.2 °F - 28.4 °F 65% 30.01 in 10.0 mi Calm Calm - N/A   Mostly Cloudy
2:34 AM 37.4 °F 34.9 °F 28.4 °F 70% 30.01 in 10.0 mi South 3.5 mph - N/A   Scattered Clouds
3:13 AM 37.4 °F 34.9 °F 28.4 °F 70% 30.01 in 10.0 mi SSW 3.5 mph - N/A   Scattered Clouds
3:34 AM 37.4 °F 33.8 °F 28.4 °F 70% 30.01 in 10.0 mi WSW 4.6 mph - N/A   Clear
3:54 AM 39.2 °F 34.2 °F 28.4 °F 65% 30.01 in 10.0 mi West 6.9 mph - N/A   Scattered Clouds
4:13 AM 37.4 °F 31.4 °F 30.2 °F 75% 30.01 in 10.0 mi West 8.1 mph - N/A   Clear
4:34 AM 35.6 °F 29.2 °F 30.2 °F 81% 30.02 in 10.0 mi West 8.1 mph - N/A   Clear
4:54 AM 35.6 °F 29.2 °F 30.2 °F 81% 30.02 in 10.0 mi WNW 8.1 mph - N/A   Clear
5:13 AM 33.8 °F 27.0 °F 30.2 °F 87% 30.02 in 10.0 mi WNW 8.1 mph - N/A   Clear
5:34 AM 35.6 °F 29.2 °F 32.0 °F 87% 30.03 in 10.0 mi WNW 8.1 mph - N/A   Clear
5:54 AM 35.6 °F 28.6 °F 30.2 °F 81% 30.04 in 10.0 mi WNW 9.2 mph - N/A   Clear
6:13 AM 32.0 °F 24.8 °F 30.2 °F 93% 30.04 in 10.0 mi WNW 8.1 mph - N/A   Clear
6:34 AM 30.2 °F 22.6 °F 30.2 °F 100% 30.05 in 10.0 mi WNW 8.1 mph - N/A   Clear
6:54 AM 33.8 °F 27.0 °F 30.2 °F 87% 30.05 in 10.0 mi WNW 8.1 mph - N/A   Clear
7:13 AM 33.8 °F 27.7 °F 30.2 °F 87% 30.05 in 10.0 mi WNW 6.9 mph - N/A   Clear
7:34 AM 30.2 °F 21.9 °F 28.4 °F 93% 30.06 in 10.0 mi WNW 9.2 mph - N/A   Clear
7:53 AM 30.2 °F 23.4 °F 28.4 °F 93% 30.06 in 10.0 mi WNW 6.9 mph - N/A   Clear
8:13 AM 30.2 °F 22.6 °F 28.4 °F 93% 30.07 in 10.0 mi WNW 8.1 mph - N/A   Clear
8:34 AM 32.0 °F 24.8 °F 28.4 °F 87% 30.07 in 10.0 mi WNW 8.1 mph - N/A   Clear
8:54 AM 33.8 °F 27.7 °F 30.2 °F 87% 30.08 in 10.0 mi WNW 6.9 mph - N/A   Clear
9:13 AM 33.8 °F 29.6 °F 30.2 °F 87% 30.08 in 10.0 mi West 4.6 mph - N/A   Clear
9:34 AM 37.4 °F 31.4 °F 30.2 °F 75% 30.08 in 10.0 mi WNW 8.1 mph - N/A   Clear
9:53 AM 41.0 °F 35.2 °F 32.0 °F 70% 30.09 in 10.0 mi WNW 9.2 mph - N/A   Clear
10:14 AM 44.6 °F 38.8 °F 30.2 °F 57% 30.09 in 10.0 mi WNW 11.5 mph - N/A   Clear
10:33 AM 46.4 °F 40.7 °F 28.4 °F 50% 30.09 in 10.0 mi WNW 12.7 mph 17.3 mph N/A   Clear
10:53 AM 46.4 °F 40.4 °F 26.6 °F 46% 30.09 in 10.0 mi WNW 13.8 mph 20.7 mph N/A   Clear
11:14 AM 48.2 °F - 24.8 °F 40% 30.09 in 10.0 mi WNW 16.1 mph - N/A   Clear
11:33 AM 48.2 °F - 24.8 °F 40% 30.09 in 10.0 mi WNW 17.3 mph - N/A   Clear
11:54 AM 50.0 °F - 21.2 °F 32% 30.09 in 10.0 mi WNW 15.0 mph 21.9 mph N/A   Clear
12:13 PM 51.8 °F - 17.6 °F 26% 30.08 in 10.0 mi WNW 19.6 mph 24.2 mph N/A   Clear
12:33 PM 53.6 °F - 15.8 °F 22% 30.08 in 10.0 mi WNW 19.6 mph 26.5 mph N/A   Clear
12:54 PM 53.6 °F - 14.0 °F 21% 30.08 in 10.0 mi NW 17.3 mph 25.3 mph N/A   Clear
1:14 PM 53.6 °F - 14.0 °F 21% 30.07 in 10.0 mi NW 18.4 mph 24.2 mph N/A   Clear
1:33 PM 53.6 °F - 12.2 °F 19% 30.07 in 10.0 mi WNW 18.4 mph 25.3 mph N/A   Clear
1:54 PM 53.6 °F - 12.2 °F 19% 30.07 in 10.0 mi NW 18.4 mph 23.0 mph N/A   Clear
2:13 PM 53.6 °F - 14.0 °F 21% 30.06 in 10.0 mi NW 19.6 mph 24.2 mph N/A   Clear
2:33 PM 53.6 °F - 12.2 °F 19% 30.05 in 10.0 mi NW 16.1 mph - N/A   Clear
2:54 PM 53.6 °F - 14.0 °F 21% 30.05 in 10.0 mi NNW 15.0 mph 26.5 mph N/A   Clear
3:13 PM 53.6 °F - 12.2 °F 19% 30.05 in 10.0 mi NW 21.9 mph 27.6 mph N/A   Clear
3:33 PM 53.6 °F - 14.0 °F 21% 30.05 in 10.0 mi NW 13.8 mph 25.3 mph N/A   Clear
3:54 PM 51.8 °F - 12.2 °F 21% 30.05 in 10.0 mi WNW 19.6 mph 25.3 mph N/A   Clear
4:13 PM 53.6 °F - 14.0 °F 21% 30.05 in 10.0 mi NW 16.1 mph 19.6 mph N/A   Scattered Clouds
4:33 PM 51.8 °F - 12.2 °F 21% 30.05 in 10.0 mi NW 17.3 mph 23.0 mph N/A   Scattered Clouds
4:54 PM 51.8 °F - 14.0 °F 22% 30.05 in 10.0 mi NW 12.7 mph - N/A   Scattered Clouds
5:14 PM 50.0 °F - 15.8 °F 26% 30.06 in 10.0 mi NNW 15.0 mph - N/A   Scattered Clouds
5:33 PM 50.0 °F - 17.6 °F 28% 30.06 in 10.0 mi NNW 11.5 mph 16.1 mph N/A   Scattered Clouds
5:54 PM 48.2 °F - 21.2 °F 34% 30.06 in 10.0 mi NW 8.1 mph - N/A   Scattered Clouds
6:14 PM 46.4 °F 42.4 °F 21.2 °F 37% 30.06 in 10.0 mi NW 8.1 mph - N/A   Scattered Clouds
6:33 PM 44.6 °F 40.2 °F 21.2 °F 39% 30.07 in 10.0 mi NW 8.1 mph - N/A   Clear
6:54 PM 42.8 °F 38.6 °F 21.2 °F 42% 30.07 in 10.0 mi NW 6.9 mph - N/A   Clear
7:14 PM 42.8 °F 39.3 °F 21.2 °F 42% 30.08 in 10.0 mi WNW 5.8 mph - N/A   Clear
7:33 PM 39.2 °F 35.0 °F 23.0 °F 52% 30.08 in 10.0 mi WNW 5.8 mph - N/A   Clear
7:54 PM 39.2 °F 35.0 °F 23.0 °F 52% 30.08 in 10.0 mi WNW 5.8 mph - N/A   Clear
8:13 PM 35.6 °F 29.2 °F 23.0 °F 60% 30.08 in 10.0 mi West 8.1 mph - N/A   Clear
8:33 PM 35.6 °F 29.9 °F 21.2 °F 56% 30.08 in 10.0 mi West 6.9 mph - N/A   Clear
8:54 PM 33.8 °F 27.7 °F 21.2 °F 60% 30.08 in 10.0 mi West 6.9 mph - N/A   Clear
9:13 PM 33.8 °F 27.7 °F 23.0 °F 65% 30.07 in 10.0 mi West 6.9 mph - N/A   Clear
9:33 PM 33.8 °F 27.7 °F 23.0 °F 65% 30.07 in 10.0 mi West 6.9 mph - N/A   Clear
9:54 PM 33.8 °F 27.7 °F 23.0 °F 65% 30.07 in 10.0 mi West 6.9 mph - N/A   Clear
10:13 PM 30.2 °F 24.3 °F 21.2 °F 69% 30.07 in 10.0 mi West 5.8 mph - N/A   Clear
10:33 PM 30.2 °F 24.3 °F 23.0 °F 75% 30.07 in 10.0 mi WNW 5.8 mph - N/A   Clear
10:54 PM 28.4 °F 22.2 °F 21.2 °F 74% 30.07 in 10.0 mi West 5.8 mph - N/A   Clear
11:13 PM 26.6 °F 20.0 °F 21.2 °F 80% 30.07 in 10.0 mi West 5.8 mph - N/A   Clear
11:33 PM 28.4 °F 21.2 °F 21.2 °F 74% 30.07 in 10.0 mi West 6.9 mph - N/A   Clear
11:54 PM 28.4 °F 20.4 °F 24.8 °F 86% 30.07 in 10.0 mi West 8.1 mph - N/A   Clear